Location: Lussas
(44.6119°N, 4.4726°E)
Time: 06:41:06
(UTC+00:00)

ATLAS CENTAUR R/B - Pass Details

Date: 26 November 2020
Orbit: 477 x 668 km, 64.7° (Epoch: 12 January)

Event Time Altitude Azimuth Distance (km) Brightness Sun altitude
Exits shadow 06:00:25 - 327° (NNW) 1,864 3.5 -9.4°
Reaches altitude 10° 06:00:50 10° 327° (NNW) 1,694 3.3 -9.3°
Maximum altitude 06:04:36 77° 54° (NE) 527 1.3 -8.7°
Drops below altitude 10° 06:08:32 10° 141° (SE) 1,768 5.0 -8.0°
Sets 06:10:47 0° 143° (SE) 2,686 6.0 -7.6°
